Powrót do katalogu

STARLINK-5307

AktywnyŁącznośćVLEO
NORAD 55658·PAYLOAD·🇺🇸 United States

Wystrzelony Feb 17, 2023 z Vandenberg Space Force Base

Loading…

Następne Przeloty (najbliższe 24 godziny)

TLE

ŚwieżeSource: CelesTrak SupGP

Epoka: Sep 14, 2026, 21:34 UTC

1 55658C 23021AG  26257.89909722  .00036828  00000+0  30862-2 0  2579
2 55658  70.0012  67.2750 0002646 274.2351 170.9807 14.98313916    18

Śledź STARLINK-5307 w czasie rzeczywistym z AllMySat

Download on the App Store